| time (UTC) | temp F | wind direction | speed MPH | gust MPH | rain 1hr in | rain 24hr in | rain mn in | humidity % | barometer mb |
| 20260509131509 | 55 | 310 | 4.0 | 9.0 | 0.00 | 0.03 | 0.03 | 50 | 1006.1 |
| 20260509130009 | 54 | 315 | 5.0 | 10.0 | 0.00 | 0.03 | 0.03 | 51 | 1006.0 |
| 20260509124508 | 54 | 318 | 4.0 | 10.0 | 0.00 | 0.03 | 0.03 | 51 | 1005.8 |
| 20260509123005 | 55 | 303 | 4.0 | 10.0 | 0.00 | 0.03 | 0.03 | 49 | 1005.7 |
| 20260509121506 | 55 | 334 | 5.0 | 12.0 | 0.01 | 0.03 | 0.03 | 47 | 1005.4 |
| 20260509120004 | 56 | 322 | 5.0 | 13.0 | 0.01 | 0.03 | 0.03 | 44 | 1005.1 |
| 20260509114509 | 57 | 260 | 7.0 | 15.0 | 0.01 | 0.03 | 0.03 | 44 | 1004.9 |
| 20260509113001 | 57 | 312 | 5.0 | 15.0 | 0.01 | 0.03 | 0.03 | 43 | 1005.0 |
| 20260509111502 | 57 | 283 | 6.0 | 13.0 | 0.00 | 0.02 | 0.02 | 43 | 1004.9 |
| 20260509110100 | 58 | 299 | 6.0 | 11.0 | 0.00 | 0.02 | 0.02 | 43 | 1004.9 |
| 20260509104600 | 59 | 283 | 5.0 | 12.0 | 0.00 | 0.02 | 0.02 | 42 | 1005.0 |
| 20260509104503 | 59 | 276 | 5.0 | 12.0 | 0.00 | 0.02 | 0.02 | 41 | 1005.0 |
| 20260509103030 | 58 | 306 | 4.0 | 8.0 | 0.00 | 0.02 | 0.02 | 43 | 1005.0 |
| 20260509101528 | 59 | 290 | 6.0 | 10.0 | 0.00 | 0.02 | 0.02 | 42 | 1004.9 |
| 20260509100025 | 60 | 252 | 6.0 | 12.0 | 0.00 | 0.02 | 0.02 | 40 | 1004.6 |
| 20260509094525 | 60 | 250 | 5.0 | 15.0 | 0.00 | 0.02 | 0.02 | 39 | 1004.2 |
| 20260509093036 | 58 | 229 | 4.0 | 10.0 | 0.00 | 0.02 | 0.02 | 46 | 1004.0 |
| 20260509091523 | 58 | 258 | 4.0 | 13.0 | 0.00 | 0.02 | 0.02 | 45 | 1004.0 |
| 20260509090020 | 58 | 250 | 6.0 | 12.0 | 0.00 | 0.02 | 0.02 | 47 | 1004.2 |
| 20260509084525 | 58 | 271 | 5.0 | 10.0 | 0.00 | 0.02 | 0.02 | 46 | 1004.0 |
| 20260509083018 | 58 | 293 | 6.0 | 15.0 | 0.00 | 0.02 | 0.02 | 45 | 1004.0 |
| 20260509081518 | 57 | 299 | 5.0 | 11.0 | 0.00 | 0.02 | 0.02 | 46 | 1003.8 |
| 20260509080047 | 58 | 264 | 4.0 | 9.0 | 0.00 | 0.02 | 0.02 | 44 | 1004.0 |
| 20260509074609 | 58 | 269 | 4.0 | 12.0 | 0.00 | 0.02 | 0.02 | 43 | 1004.1 |
| 20260509073043 | 58 | 237 | 8.0 | 14.0 | 0.00 | 0.02 | 0.02 | 43 | 1004.3 |
| 20260509071549 | 53 | 216 | 4.0 | 6.0 | 0.00 | 0.02 | 0.02 | 50 | 1004.2 |
| 20260509070044 | 53 | 241 | 2.0 | 5.0 | 0.00 | 0.02 | 0.02 | 50 | 1004.0 |
| 20260509064542 | 53 | 225 | 3.0 | 6.0 | 0.00 | 0.02 | 0.02 | 51 | 1004.0 |
| 20260509063039 | 53 | 206 | 4.0 | 7.0 | 0.00 | 0.02 | 0.02 | 51 | 1004.0 |
| 20260509061538 | 53 | 208 | 5.0 | 8.0 | 0.00 | 0.02 | 0.02 | 51 | 1004.1 |
| 20260509060039 | 53 | 201 | 5.0 | 7.0 | 0.00 | 0.02 | 0.02 | 50 | 1004.1 |
| 20260509054551 | 53 | 201 | 4.0 | 6.0 | 0.00 | 0.02 | 0.02 | 51 | 1004.2 |
| 20260509053035 | 53 | 206 | 3.0 | 6.0 | 0.00 | 0.02 | 0.02 | 51 | 1004.2 |
| 20260509051537 | 52 | 218 | 2.0 | 4.0 | 0.00 | 0.02 | 0.02 | 54 | 1004.3 |
| 20260509050045 | 50 | 234 | 0.0 | 3.0 | 0.00 | 0.02 | 0.02 | 58 | 1004.3 |
| 20260509044533 | 48 | 269 | 1.0 | 3.0 | 0.00 | 0.02 | 0.02 | 62 | 1004.6 |
| 20260509043030 | 45 | 269 | 0.0 | 2.0 | 0.00 | 0.02 | 0.02 | 64 | 1004.6 |
| 20260509041530 | 45 | 72 | 0.0 | 2.0 | 0.00 | 0.02 | 0.02 | 64 | 1004.7 |
| 20260509040028 | 44 | 63 | 1.0 | 2.0 | 0.00 | 0.02 | 0.02 | 65 | 1004.7 |
| 20260509034526 | 43 | 152 | 0.0 | 2.0 | 0.00 | 0.02 | 0.02 | 64 | 1004.8 |
| 20260509033020 | 43 | 39 | 1.0 | 2.0 | 0.00 | 0.02 | 0.02 | 62 | 1004.8 |
| 20260509031525 | 45 | 63 | 1.0 | 3.0 | 0.00 | 0.02 | 0.02 | 60 | 1004.7 |
| 20260509030006 | 46 | 76 | 1.0 | 2.0 | 0.00 | 0.02 | 0.02 | 56 | 1004.5 |
| 20260509024604 | 48 | 68 | 1.0 | 2.0 | 0.00 | 0.02 | 0.02 | 52 | 1004.4 |
| 20260509023046 | 52 | 124 | 0.0 | 2.0 | 0.00 | 0.02 | 0.02 | 45 | 1004.1 |
| 20260509021539 | 56 | 135 | 1.0 | 2.0 | 0.00 | 0.02 | 0.02 | 41 | 1004.1 |
| 20260509020032 | 60 | 218 | 1.0 | 3.0 | 0.00 | 0.02 | 0.02 | 37 | 1004.0 |
| 20260509014529 | 64 | 46 | 1.0 | 3.0 | 0.00 | 0.02 | 0.02 | 34 | 1004.1 |
| 20260509013035 | 65 | 321 | 2.0 | 5.0 | 0.00 | 0.02 | 0.02 | 31 | 1004.1 |
| 20260509011524 | 65 | 314 | 2.0 | 6.0 | 0.00 | 0.02 | 0.02 | 31 | 1004.3 |
| 20260509010025 | 66 | 1 | 2.0 | 8.0 | 0.00 | 0.02 | 0.02 | 31 | 1004.4 |
| 20260509004528 | 67 | 330 | 3.0 | 7.0 | 0.00 | 0.04 | 0.02 | 30 | 1004.5 |
| 20260509003017 | 66 | 269 | 3.0 | 10.0 | 0.00 | 0.04 | 0.02 | 29 | 1004.6 |
| 20260509001511 | 67 | 258 | 6.0 | 12.0 | 0.00 | 0.04 | 0.02 | 29 | 1004.8 |
| 20260509000014 | 67 | 269 | 5.0 | 13.0 | 0.00 | 0.04 | 0.02 | 28 | 1005.0 |
| 20260508234508 | 66 | 281 | 3.0 | 8.0 | 0.00 | 0.05 | 0.02 | 29 | 1005.0 |
| 20260508233002 | 67 | 303 | 4.0 | 13.0 | 0.00 | 0.05 | 0.02 | 27 | 1005.1 |
| 20260508231557 | 67 | 304 | 4.0 | 9.0 | 0.00 | 0.05 | 0.02 | 28 | 1005.3 |
| 20260508230101 | 67 | 255 | 6.0 | 14.0 | 0.00 | 0.05 | 0.02 | 28 | 1005.5 |
| 20260508224553 | 66 | 254 | 5.0 | 13.0 | 0.00 | 0.24 | 0.02 | 29 | 1005.7 |
| 20260508223046 | 66 | 301 | 4.0 | 11.0 | 0.00 | 0.24 | 0.02 | 29 | 1005.8 |
| 20260508221540 | 68 | 237 | 6.0 | 13.0 | 0.00 | 0.24 | 0.02 | 28 | 1005.9 |
| 20260508220040 | 66 | 298 | 5.0 | 13.0 | 0.00 | 0.24 | 0.02 | 30 | 1006.1 |
| 20260508214529 | 65 | 285 | 2.0 | 11.0 | 0.00 | 0.56 | 0.02 | 31 | 1006.3 |
| 20260508213033 | 67 | 305 | 5.0 | 9.0 | 0.00 | 0.56 | 0.02 | 29 | 1006.5 |
| 20260508211517 | 66 | 223 | 3.0 | 11.0 | 0.00 | 0.56 | 0.02 | 31 | 1006.7 |
| 20260508210011 | 65 | 308 | 5.0 | 15.0 | 0.00 | 0.56 | 0.02 | 32 | 1007.1 |
| 20260508204508 | 65 | 336 | 4.0 | 13.0 | 0.00 | 0.59 | 0.02 | 31 | 1007.3 |
| 20260508203010 | 65 | 279 | 6.0 | 12.0 | 0.00 | 0.59 | 0.02 | 32 | 1007.5 |
| 20260508201613 | 65 | 317 | 3.0 | 9.0 | 0.00 | 0.59 | 0.02 | 32 | 1007.5 |
| 20260508200131 | 65 | 347 | 4.0 | 12.0 | 0.00 | 0.59 | 0.02 | 30 | 1007.7 |
| 20260508194553 | 65 | 326 | 5.0 | 15.0 | 0.00 | 0.60 | 0.02 | 32 | 1007.9 |
| 20260508193054 | 65 | 265 | 4.0 | 12.0 | 0.01 | 0.60 | 0.02 | 32 | 1008.0 |
| 20260508191543 | 64 | 312 | 4.0 | 10.0 | 0.02 | 0.60 | 0.02 | 31 | 1008.2 |
| 20260508190044 | 63 | 295 | 7.0 | 16.0 | 0.02 | 0.60 | 0.02 | 32 | 1008.5 |
| 20260508184535 | 63 | 1 | 6.0 | 15.0 | 0.02 | 0.60 | 0.02 | 32 | 1008.6 |
| 20260508183036 | 63 | 286 | 4.0 | 12.0 | 0.01 | 0.59 | 0.01 | 32 | 1008.7 |
| 20260508181543 | 63 | 310 | 6.0 | 13.0 | 0.00 | 0.57 | 0.00 | 36 | 1008.9 |
| 20260508180019 | 61 | 312 | 7.0 | 12.0 | 0.00 | 0.57 | 0.00 | 34 | 1009.3 |
| 20260508174519 | 61 | 269 | 4.0 | 12.0 | 0.00 | 0.57 | 0.00 | 35 | 1009.4 |
| 20260508173014 | 61 | 336 | 8.0 | 13.0 | 0.00 | 0.57 | 0.00 | 38 | 1009.4 |
| 20260508171540 | 60 | 303 | 4.0 | 13.0 | 0.00 | 0.57 | 0.00 | 42 | 1009.6 |
| 20260508170033 | 60 | 303 | 6.0 | 14.0 | 0.00 | 0.57 | 0.00 | 42 | 1009.6 |
| 20260508164501 | 60 | 317 | 6.0 | 12.0 | 0.00 | 0.57 | 0.57 | 42 | 1009.7 |
| 20260508163059 | 59 | 340 | 4.0 | 14.0 | 0.00 | 0.57 | 0.57 | 44 | 1009.7 |
| 20260508161553 | 60 | 333 | 6.0 | 11.0 | 0.00 | 0.57 | 0.57 | 45 | 1009.8 |
| 20260508160051 | 60 | 346 | 7.0 | 13.0 | 0.00 | 0.57 | 0.57 | 47 | 1010.0 |
| 20260508154552 | 58 | 277 | 6.0 | 14.0 | 0.00 | 0.57 | 0.57 | 49 | 1010.1 |
| 20260508153041 | 58 | 299 | 7.0 | 13.0 | 0.00 | 0.57 | 0.57 | 50 | 1010.1 |
| 20260508151534 | 57 | 318 | 7.0 | 11.0 | 0.00 | 0.57 | 0.57 | 53 | 1010.1 |
| 20260508150034 | 56 | 314 | 6.0 | 12.0 | 0.00 | 0.57 | 0.57 | 54 | 1010.2 |
| 20260508144532 | 56 | 290 | 6.0 | 11.0 | 0.00 | 0.59 | 0.57 | 57 | 1010.2 |
| 20260508143036 | 54 | 299 | 6.0 | 13.0 | 0.00 | 0.59 | 0.57 | 58 | 1010.0 |
| 20260508141544 | 53 | 306 | 5.0 | 12.0 | 0.00 | 0.59 | 0.57 | 61 | 1010.1 |
| 20260508140027 | 53 | 322 | 4.0 | 10.0 | 0.00 | 0.59 | 0.57 | 63 | 1010.2 |
| 20260508134526 | 51 | 279 | 3.0 | 8.0 | 0.00 | 0.59 | 0.57 | 65 | 1010.1 |
| 20260508133026 | 50 | 260 | 3.0 | 9.0 | 0.00 | 0.59 | 0.57 | 69 | 1010.1 |